Location: Gradaro
(45.0833°N, 10.8833°E)
Time: 23:46:53
(UTC+00:00)

Cosmos 2263 Rocket - Pass Details

Date: 26 April 2021
Orbit: 824 x 848 km, 71.0° (Epoch: 15 May)

Event Time Altitude Azimuth Distance (km) Brightness Sun altitude
Exits shadow 21:05:30 20° 219° (SW) 1,829 3.8 -24.3°
Maximum altitude 21:09:25 67° 298° (WNW) 894 2.4 -24.7°
Drops below altitude 10° 21:14:58 10° 21° (NNE) 2,438 5.0 -25.2°
Sets 21:17:27 0° 24° (NNE) 3,378 5.8 -25.4°
